YUZGU 7 (RS1S)

Last updated on Sat Jan 28 2023 00:02:07 GMT+0000 (Coordinated Universal Time)

1 53309U 98067TU 23026.78154543 .07817383 12266-4 25237-2 0 9999 2 53309 51.5369 287.2498 0215129 186.3126 284.9191 16.41937082 29633

Satellite not in orbit